Time,TemperatureF,DewpointF,PressureIn,WindDirection,WindDirectionDegrees,WindSpeedMPH,WindSpeedGustMPH,Humidity,HourlyPrecipIn,Conditions,Clouds,dailyrainin,SoftwareType,DateUTC
2013-02-16 00:03:00,37.1,34.1,29.87,North,0,0.0,0.0,89,0.00,,,0.00,WUHU216HW,2013-02-16 08:03:00,
2013-02-16 00:08:00,36.9,33.9,29.87,North,0,0.0,0.0,89,0.00,,,0.00,WUHU216HW,2013-02-16 08:08:00,
2013-02-16 00:13:00,36.9,33.9,29.87,North,0,0.0,0.0,89,0.00,,,0.00,WUHU216HW,2013-02-16 08:13:00,
2013-02-16 00:18:00,36.7,33.8,29.87,North,0,0.0,0.0,89,0.00,,,0.00,WUHU216HW,2013-02-16 08:18:00,
2013-02-16 00:23:00,36.5,33.6,29.87,North,0,0.0,0.0,89,0.00,,,0.00,WUHU216HW,2013-02-16 08:23:00,
2013-02-16 00:28:00,36.4,33.7,29.87,North,0,0.0,0.0,90,0.00,,,0.00,WUHU216HW,2013-02-16 08:28:00,
2013-02-16 00:33:00,36.4,33.7,29.87,North,0,0.0,0.0,90,0.00,,,0.00,WUHU216HW,2013-02-16 08:33:00,
2013-02-16 00:38:00,36.4,33.7,29.87,North,0,0.0,0.0,90,0.00,,,0.00,WUHU216HW,2013-02-16 08:38:00,
2013-02-16 00:43:00,36.4,33.7,29.86,North,0,0.0,0.0,90,0.00,,,0.00,WUHU216HW,2013-02-16 08:43:00,
2013-02-16 00:48:00,36.4,33.7,29.86,North,0,0.0,0.0,90,0.00,,,0.00,WUHU216HW,2013-02-16 08:48:00,
2013-02-16 00:53:00,36.2,33.5,29.86,North,0,0.0,0.0,90,0.00,,,0.00,WUHU216HW,2013-02-16 08:53:00,
2013-02-16 00:58:00,36.2,33.5,29.86,North,0,0.0,0.0,90,0.00,,,0.00,WUHU216HW,2013-02-16 08:58:00,
2013-02-16 01:03:00,36.0,33.3,29.87,North,0,0.0,0.0,90,0.00,,,0.00,WUHU216HW,2013-02-16 09:03:00,
2013-02-16 01:08:00,35.8,33.1,29.87,North,0,0.0,0.0,90,0.00,,,0.00,WUHU216HW,2013-02-16 09:08:00,
2013-02-16 01:13:00,35.6,32.9,29.87,North,0,0.0,0.0,90,0.00,,,0.00,WUHU216HW,2013-02-16 09:13:00,
2013-02-16 01:18:00,35.6,32.9,29.87,North,0,0.0,0.0,90,0.00,,,0.00,WUHU216HW,2013-02-16 09:18:00,
2013-02-16 01:23:00,35.6,32.9,29.86,North,0,0.0,0.0,90,0.00,,,0.00,WUHU216HW,2013-02-16 09:23:00,
2013-02-16 01:28:00,35.6,32.9,29.86,North,0,0.0,0.0,90,0.00,,,0.00,WUHU216HW,2013-02-16 09:28:00,
2013-02-16 01:33:00,35.5,32.8,29.86,North,0,0.0,0.0,90,0.00,,,0.00,WUHU216HW,2013-02-16 09:33:00,
2013-02-16 01:37:00,35.5,33.0,29.86,North,0,0.0,0.0,91,0.00,,,0.00,WUHU216HW,2013-02-16 09:37:00,
2013-02-16 01:43:00,35.5,33.0,29.86,North,0,0.0,0.0,91,0.00,,,0.00,WUHU216HW,2013-02-16 09:43:00,
2013-02-16 01:47:00,35.3,32.9,29.86,North,0,0.0,0.0,91,0.00,,,0.00,WUHU216HW,2013-02-16 09:47:00,
2013-02-16 01:52:00,35.1,32.7,29.86,North,0,0.0,0.0,91,0.00,,,0.00,WUHU216HW,2013-02-16 09:52:00,
2013-02-16 01:57:00,35.1,32.7,29.86,North,0,0.0,0.0,91,0.00,,,0.00,WUHU216HW,2013-02-16 09:57:00,
2013-02-16 02:02:00,35.1,32.7,29.85,North,0,0.0,0.0,91,0.00,,,0.00,WUHU216HW,2013-02-16 10:02:00,
2013-02-16 02:07:00,34.9,32.5,29.85,North,0,0.0,0.0,91,0.00,,,0.00,WUHU216HW,2013-02-16 10:07:00,
2013-02-16 02:12:00,34.9,32.5,29.85,North,0,0.0,0.0,91,0.00,,,0.00,WUHU216HW,2013-02-16 10:12:00,
2013-02-16 02:17:00,34.9,32.5,29.86,North,0,0.0,0.0,91,0.00,,,0.00,WUHU216HW,2013-02-16 10:17:00,
2013-02-16 02:22:00,34.9,32.5,29.86,North,0,0.0,0.0,91,0.00,,,0.00,WUHU216HW,2013-02-16 10:22:00,
2013-02-16 02:27:00,34.9,32.8,29.86,North,0,0.0,0.0,92,0.00,,,0.00,WUHU216HW,2013-02-16 10:27:00,
2013-02-16 02:32:00,34.9,32.8,29.86,North,0,0.0,0.0,92,0.00,,,0.00,WUHU216HW,2013-02-16 10:32:00,
2013-02-16 02:37:00,35.1,32.9,29.86,North,0,0.0,0.0,92,0.00,,,0.00,WUHU216HW,2013-02-16 10:37:00,
2013-02-16 02:42:00,35.3,33.1,29.86,North,0,0.0,0.0,92,0.00,,,0.00,WUHU216HW,2013-02-16 10:42:00,
2013-02-16 02:47:00,35.3,33.1,29.86,North,0,0.0,0.0,92,0.00,,,0.00,WUHU216HW,2013-02-16 10:47:00,
2013-02-16 02:52:00,35.5,33.3,29.86,North,0,0.0,0.0,92,0.00,,,0.00,WUHU216HW,2013-02-16 10:52:00,
2013-02-16 02:57:00,35.5,33.3,29.86,North,0,0.0,0.0,92,0.00,,,0.00,WUHU216HW,2013-02-16 10:57:00,
2013-02-16 03:02:00,35.5,33.3,29.85,North,0,0.0,0.0,92,0.00,,,0.00,WUHU216HW,2013-02-16 11:02:00,
2013-02-16 03:07:00,35.6,33.5,29.85,North,0,0.0,0.0,92,0.00,,,0.00,WUHU216HW,2013-02-16 11:07:00,
2013-02-16 03:12:00,35.6,33.5,29.85,North,0,0.0,0.0,92,0.00,,,0.00,WUHU216HW,2013-02-16 11:12:00,
2013-02-16 03:17:00,35.6,33.5,29.84,North,0,0.0,0.0,92,0.00,,,0.00,WUHU216HW,2013-02-16 11:17:00,
2013-02-16 03:22:00,35.8,33.7,29.84,North,0,0.0,0.0,92,0.00,,,0.00,WUHU216HW,2013-02-16 11:22:00,
2013-02-16 03:27:00,35.8,33.7,29.84,North,0,0.0,0.0,92,0.00,,,0.00,WUHU216HW,2013-02-16 11:27:00,
2013-02-16 03:32:00,36.0,33.8,29.84,North,0,0.0,0.0,92,0.00,,,0.00,WUHU216HW,2013-02-16 11:32:00,
2013-02-16 03:37:00,36.2,34.0,29.84,North,0,0.0,0.0,92,0.00,,,0.00,WUHU216HW,2013-02-16 11:37:00,
2013-02-16 03:42:00,36.2,34.0,29.84,North,0,0.0,0.0,92,0.00,,,0.00,WUHU216HW,2013-02-16 11:42:00,
2013-02-16 03:47:00,36.2,34.0,29.84,North,0,0.0,0.0,92,0.00,,,0.00,WUHU216HW,2013-02-16 11:47:00,
2013-02-16 03:52:00,36.4,34.2,29.84,North,0,0.0,0.0,92,0.00,,,0.00,WUHU216HW,2013-02-16 11:52:00,
2013-02-16 03:57:00,36.4,34.2,29.84,North,0,0.0,0.0,92,0.00,,,0.00,WUHU216HW,2013-02-16 11:57:00,
2013-02-16 04:02:00,36.5,34.4,29.84,North,0,0.0,0.0,92,0.00,,,0.00,WUHU216HW,2013-02-16 12:02:00,
2013-02-16 04:07:00,36.7,34.6,29.84,North,0,0.0,0.0,92,0.00,,,0.00,WUHU216HW,2013-02-16 12:07:00,
2013-02-16 04:12:00,36.7,34.6,29.84,North,0,0.0,0.0,92,0.00,,,0.00,WUHU216HW,2013-02-16 12:12:00,
2013-02-16 04:17:00,36.9,34.7,29.84,North,0,0.0,0.0,92,0.00,,,0.00,WUHU216HW,2013-02-16 12:17:00,
2013-02-16 04:22:00,37.1,34.9,29.84,North,0,0.0,0.0,92,0.00,,,0.00,WUHU216HW,2013-02-16 12:22:00,
2013-02-16 04:27:00,37.1,34.9,29.84,North,0,0.0,0.0,92,0.00,,,0.00,WUHU216HW,2013-02-16 12:27:00,
2013-02-16 04:32:00,37.1,34.9,29.84,North,0,0.0,0.0,92,0.00,,,0.00,WUHU216HW,2013-02-16 12:32:00,
2013-02-16 04:37:00,37.3,35.1,29.84,North,0,0.0,0.0,92,0.00,,,0.00,WUHU216HW,2013-02-16 12:37:00,
2013-02-16 04:42:00,37.4,35.3,29.84,North,0,0.0,0.0,92,0.00,,,0.00,WUHU216HW,2013-02-16 12:42:00,
2013-02-16 04:47:00,37.4,35.6,29.84,North,0,0.0,0.0,93,0.00,,,0.00,WUHU216HW,2013-02-16 12:47:00,
2013-02-16 04:52:00,37.6,35.7,29.84,North,0,0.0,0.0,93,0.00,,,0.00,WUHU216HW,2013-02-16 12:52:00,
2013-02-16 04:57:00,37.8,35.6,29.85,North,0,0.0,0.0,92,0.00,,,0.00,WUHU216HW,2013-02-16 12:57:00,
2013-02-16 05:02:00,37.8,35.6,29.85,North,0,0.0,0.0,92,0.00,,,0.00,WUHU216HW,2013-02-16 13:02:00,
2013-02-16 05:07:00,37.8,35.9,29.85,North,0,0.0,0.0,93,0.00,,,0.00,WUHU216HW,2013-02-16 13:07:00,
2013-02-16 05:12:00,38.0,36.1,29.84,North,0,0.0,0.0,93,0.00,,,0.00,WUHU216HW,2013-02-16 13:12:00,
2013-02-16 05:17:00,38.0,36.1,29.85,North,0,0.0,0.0,93,0.00,,,0.00,WUHU216HW,2013-02-16 13:17:00,
2013-02-16 05:22:00,38.2,36.3,29.84,North,0,0.0,0.0,93,0.00,,,0.00,WUHU216HW,2013-02-16 13:22:00,
2013-02-16 05:27:00,38.3,36.5,29.85,North,0,0.0,0.0,93,0.00,,,0.00,WUHU216HW,2013-02-16 13:27:00,
2013-02-16 05:32:00,38.5,36.6,29.84,North,0,0.0,0.0,93,0.00,,,0.00,WUHU216HW,2013-02-16 13:32:00,
2013-02-16 05:37:00,38.5,36.6,29.84,North,0,0.0,0.0,93,0.00,,,0.00,WUHU216HW,2013-02-16 13:37:00,
2013-02-16 05:42:00,38.7,36.8,29.84,North,0,0.0,0.0,93,0.00,,,0.00,WUHU216HW,2013-02-16 13:42:00,
2013-02-16 05:47:00,38.9,37.0,29.85,North,0,0.0,0.0,93,0.00,,,0.00,WUHU216HW,2013-02-16 13:47:00,
2013-02-16 05:52:00,39.1,37.2,29.84,North,0,0.0,0.0,93,0.00,,,0.00,WUHU216HW,2013-02-16 13:52:00,
2013-02-16 05:57:00,39.1,37.2,29.84,North,0,0.0,0.0,93,0.00,,,0.00,WUHU216HW,2013-02-16 13:57:00,
2013-02-16 06:02:00,39.2,37.4,29.84,North,0,0.0,0.0,93,0.00,,,0.00,WUHU216HW,2013-02-16 14:02:00,
2013-02-16 06:07:00,39.2,37.4,29.84,North,0,0.0,0.0,93,0.00,,,0.00,WUHU216HW,2013-02-16 14:07:00,
2013-02-16 06:12:00,39.4,37.5,29.84,North,0,0.0,0.0,93,0.00,,,0.00,WUHU216HW,2013-02-16 14:12:00,
2013-02-16 06:17:00,39.4,37.5,29.84,North,0,0.0,0.0,93,0.00,,,0.00,WUHU216HW,2013-02-16 14:17:00,
2013-02-16 06:22:00,39.6,37.7,29.85,North,0,0.0,0.0,93,0.00,,,0.00,WUHU216HW,2013-02-16 14:22:00,
2013-02-16 06:27:00,39.8,37.9,29.84,North,0,0.0,0.0,93,0.01,,,0.01,WUHU216HW,2013-02-16 14:27:00,
2013-02-16 06:32:00,39.8,37.9,29.84,North,0,0.0,0.0,93,0.01,,,0.01,WUHU216HW,2013-02-16 14:32:00,
2013-02-16 06:37:00,40.0,38.1,29.84,North,0,0.0,0.0,93,0.01,,,0.01,WUHU216HW,2013-02-16 14:37:00,
2013-02-16 06:42:00,40.0,38.1,29.83,North,0,0.0,0.0,93,0.01,,,0.01,WUHU216HW,2013-02-16 14:42:00,
2013-02-16 06:47:00,40.3,38.7,29.83,North,0,0.0,0.0,94,0.01,,,0.01,WUHU216HW,2013-02-16 14:47:00,
2013-02-16 06:52:00,40.9,39.2,29.84,North,0,0.0,0.0,94,0.01,,,0.01,WUHU216HW,2013-02-16 14:52:00,
2013-02-16 06:57:00,41.2,39.6,29.83,North,0,0.0,0.0,94,0.01,,,0.01,WUHU216HW,2013-02-16 14:57:00,
2013-02-16 07:02:00,41.4,39.8,29.84,North,0,0.0,0.0,94,0.01,,,0.01,WUHU216HW,2013-02-16 15:02:00,
2013-02-16 07:07:00,41.8,40.1,29.84,North,0,0.0,0.0,94,0.01,,,0.01,WUHU216HW,2013-02-16 15:07:00,
2013-02-16 07:12:00,41.8,40.1,29.84,North,0,0.0,0.0,94,0.01,,,0.01,WUHU216HW,2013-02-16 15:12:00,
2013-02-16 07:17:00,41.8,40.1,29.84,North,0,0.0,0.0,94,0.01,,,0.01,WUHU216HW,2013-02-16 15:17:00,
2013-02-16 07:22:00,41.9,40.3,29.84,North,0,0.0,0.0,94,0.01,,,0.01,WUHU216HW,2013-02-16 15:22:00,
2013-02-16 07:27:00,42.1,40.5,29.84,North,0,0.0,0.0,94,0.00,,,0.01,WUHU216HW,2013-02-16 15:27:00,
2013-02-16 07:32:00,42.1,40.5,29.85,North,0,0.0,0.0,94,0.00,,,0.01,WUHU216HW,2013-02-16 15:32:00,
2013-02-16 07:37:00,42.3,40.7,29.85,North,0,0.0,0.0,94,0.00,,,0.01,WUHU216HW,2013-02-16 15:37:00,
2013-02-16 07:42:00,42.5,40.9,29.85,North,0,0.0,0.0,94,0.01,,,0.02,WUHU216HW,2013-02-16 15:42:00,
2013-02-16 07:47:00,42.7,41.0,29.85,North,0,0.0,0.0,94,0.02,,,0.03,WUHU216HW,2013-02-16 15:47:00,
2013-02-16 07:52:00,42.8,41.2,29.85,North,0,0.0,0.0,94,0.02,,,0.03,WUHU216HW,2013-02-16 15:52:00,
2013-02-16 07:57:00,42.8,41.2,29.85,North,0,0.0,0.0,94,0.03,,,0.04,WUHU216HW,2013-02-16 15:57:00,
2013-02-16 08:02:00,42.8,41.2,29.85,North,0,0.0,0.0,94,0.04,,,0.05,WUHU216HW,2013-02-16 16:02:00,
2013-02-16 08:07:00,42.8,41.2,29.85,North,0,0.0,0.0,94,0.04,,,0.05,WUHU216HW,2013-02-16 16:07:00,
2013-02-16 08:12:00,42.8,41.2,29.85,North,0,0.0,0.0,94,0.05,,,0.06,WUHU216HW,2013-02-16 16:12:00,
2013-02-16 08:17:00,42.8,41.2,29.85,North,0,0.0,0.0,94,0.06,,,0.07,WUHU216HW,2013-02-16 16:17:00,
2013-02-16 08:22:00,42.8,41.2,29.85,North,0,0.0,0.0,94,0.06,,,0.07,WUHU216HW,2013-02-16 16:22:00,
2013-02-16 08:27:00,42.8,41.2,29.86,North,0,0.0,0.0,94,0.06,,,0.07,WUHU216HW,2013-02-16 16:27:00,
2013-02-16 08:32:00,42.7,41.0,29.86,North,0,0.0,0.0,94,0.07,,,0.08,WUHU216HW,2013-02-16 16:32:00,
2013-02-16 08:37:00,42.7,41.0,29.86,North,0,0.0,0.0,94,0.07,,,0.09,WUHU216HW,2013-02-16 16:37:00,
2013-02-16 08:43:00,42.7,41.0,29.86,North,0,0.0,0.0,94,0.07,,,0.09,WUHU216HW,2013-02-16 16:43:00,
2013-02-16 08:48:00,42.7,41.0,29.86,North,0,0.0,0.0,94,0.06,,,0.09,WUHU216HW,2013-02-16 16:48:00,
2013-02-16 08:53:00,42.8,41.2,29.86,North,0,0.0,0.0,94,0.07,,,0.10,WUHU216HW,2013-02-16 16:53:00,
2013-02-16 08:58:00,42.8,41.2,29.86,North,0,0.0,0.0,94,0.06,,,0.10,WUHU216HW,2013-02-16 16:58:00,
2013-02-16 09:03:00,42.8,41.2,29.86,North,0,0.0,0.0,94,0.05,,,0.10,WUHU216HW,2013-02-16 17:03:00,
2013-02-16 09:08:00,42.8,41.2,29.86,North,0,0.0,0.0,94,0.05,,,0.11,WUHU216HW,2013-02-16 17:08:00,
2013-02-16 09:13:00,43.0,41.4,29.86,North,0,0.0,0.0,94,0.05,,,0.11,WUHU216HW,2013-02-16 17:13:00,
2013-02-16 09:18:00,43.2,41.9,29.86,North,0,0.0,0.0,95,0.04,,,0.11,WUHU216HW,2013-02-16 17:18:00,
2013-02-16 09:23:00,43.4,42.0,29.87,North,0,0.0,0.0,95,0.04,,,0.11,WUHU216HW,2013-02-16 17:23:00,
2013-02-16 09:28:00,43.4,42.0,29.87,North,0,0.0,0.0,95,0.04,,,0.11,WUHU216HW,2013-02-16 17:28:00,
2013-02-16 09:33:00,43.4,42.0,29.86,North,0,0.0,0.0,95,0.03,,,0.11,WUHU216HW,2013-02-16 17:33:00,
2013-02-16 09:38:00,43.6,42.2,29.86,North,0,0.0,0.0,95,0.04,,,0.13,WUHU216HW,2013-02-16 17:38:00,
2013-02-16 09:43:00,43.7,42.4,29.86,North,0,0.0,0.0,95,0.04,,,0.13,WUHU216HW,2013-02-16 17:43:00,
2013-02-16 09:48:00,44.1,42.8,29.87,North,0,0.0,0.0,95,0.04,,,0.13,WUHU216HW,2013-02-16 17:48:00,
2013-02-16 09:53:00,44.3,42.9,29.87,North,0,0.0,0.0,95,0.03,,,0.13,WUHU216HW,2013-02-16 17:53:00,
2013-02-16 09:58:00,44.3,42.9,29.86,North,0,0.0,0.0,95,0.03,,,0.13,WUHU216HW,2013-02-16 17:58:00,
2013-02-16 10:03:00,44.5,43.1,29.86,North,0,0.0,0.0,95,0.03,,,0.13,WUHU216HW,2013-02-16 18:03:00,
2013-02-16 10:08:00,44.6,43.3,29.86,North,0,0.0,0.0,95,0.02,,,0.13,WUHU216HW,2013-02-16 18:08:00,
2013-02-16 10:13:00,45.0,43.7,29.86,North,0,0.0,0.0,95,0.02,,,0.13,WUHU216HW,2013-02-16 18:13:00,
2013-02-16 10:18:00,45.2,43.8,29.86,North,0,0.0,0.0,95,0.02,,,0.13,WUHU216HW,2013-02-16 18:18:00,
2013-02-16 10:23:00,45.4,44.0,29.86,North,0,0.0,0.0,95,0.02,,,0.13,WUHU216HW,2013-02-16 18:23:00,
2013-02-16 10:28:00,45.5,44.2,29.86,North,0,0.0,0.0,95,0.02,,,0.13,WUHU216HW,2013-02-16 18:28:00,
2013-02-16 10:33:00,45.7,44.1,29.86,North,0,0.0,0.0,94,0.02,,,0.13,WUHU216HW,2013-02-16 18:33:00,
2013-02-16 10:38:00,45.9,44.3,29.85,North,0,0.0,0.0,94,0.00,,,0.13,WUHU216HW,2013-02-16 18:38:00,
2013-02-16 10:43:00,46.1,44.7,29.85,North,0,0.0,0.0,95,0.00,,,0.13,WUHU216HW,2013-02-16 18:43:00,
2013-02-16 10:48:00,46.3,44.6,29.85,North,0,0.0,0.0,94,0.00,,,0.13,WUHU216HW,2013-02-16 18:48:00,
2013-02-16 10:53:00,46.4,44.8,29.85,North,0,0.0,0.0,94,0.00,,,0.13,WUHU216HW,2013-02-16 18:53:00,
2013-02-16 10:58:00,46.4,44.8,29.85,North,0,0.0,0.0,94,0.00,,,0.13,WUHU216HW,2013-02-16 18:58:00,
2013-02-16 11:03:00,46.4,44.8,29.86,North,0,0.0,0.0,94,0.00,,,0.13,WUHU216HW,2013-02-16 19:03:00,
2013-02-16 11:08:00,46.6,45.0,29.86,North,0,0.0,0.0,94,0.00,,,0.13,WUHU216HW,2013-02-16 19:08:00,
2013-02-16 11:13:00,46.6,45.0,29.86,North,0,0.0,0.0,94,0.00,,,0.13,WUHU216HW,2013-02-16 19:13:00,
2013-02-16 11:18:00,46.6,45.0,29.86,North,0,0.0,0.0,94,0.00,,,0.13,WUHU216HW,2013-02-16 19:18:00,
2013-02-16 11:23:00,46.8,45.2,29.85,North,0,0.0,0.0,94,0.00,,,0.13,WUHU216HW,2013-02-16 19:23:00,
2013-02-16 11:28:00,46.8,45.2,29.85,North,0,0.0,0.0,94,0.02,,,0.15,WUHU216HW,2013-02-16 19:28:00,
2013-02-16 11:33:00,46.6,45.3,29.85,North,0,0.0,0.0,95,0.02,,,0.15,WUHU216HW,2013-02-16 19:33:00,
2013-02-16 11:38:00,46.4,44.8,29.85,North,0,0.0,0.0,94,0.02,,,0.15,WUHU216HW,2013-02-16 19:38:00,
2013-02-16 11:43:00,46.3,44.6,29.85,North,0,0.0,0.0,94,0.06,,,0.19,WUHU216HW,2013-02-16 19:43:00,
2013-02-16 11:48:00,46.1,44.5,29.85,North,0,0.0,0.0,94,0.07,,,0.20,WUHU216HW,2013-02-16 19:48:00,
2013-02-16 11:53:00,46.1,44.5,29.85,North,0,0.0,0.0,94,0.07,,,0.20,WUHU216HW,2013-02-16 19:53:00,
2013-02-16 11:58:00,46.1,44.5,29.85,North,0,0.0,0.0,94,0.07,,,0.20,WUHU216HW,2013-02-16 19:58:00,
2013-02-16 12:03:00,46.1,44.5,29.85,North,0,0.0,0.0,94,0.07,,,0.20,WUHU216HW,2013-02-16 20:03:00,
2013-02-16 12:08:00,46.3,44.6,29.85,North,0,0.0,0.0,94,0.07,,,0.20,WUHU216HW,2013-02-16 20:08:00,
2013-02-16 12:13:00,46.6,45.0,29.84,North,0,0.0,0.0,94,0.07,,,0.20,WUHU216HW,2013-02-16 20:13:00,
2013-02-16 12:18:00,47.0,45.4,29.85,North,0,0.0,0.0,94,0.07,,,0.20,WUHU216HW,2013-02-16 20:18:00,
2013-02-16 12:23:00,47.0,45.1,29.85,North,0,0.0,0.0,93,0.07,,,0.20,WUHU216HW,2013-02-16 20:23:00,
2013-02-16 12:28:00,47.0,45.1,29.84,North,0,0.0,0.0,93,0.05,,,0.20,WUHU216HW,2013-02-16 20:28:00,
2013-02-16 12:33:00,47.0,45.1,29.84,North,0,0.0,0.0,93,0.05,,,0.20,WUHU216HW,2013-02-16 20:33:00,
2013-02-16 12:38:00,46.8,44.6,29.84,North,0,0.0,0.0,92,0.03,,,0.20,WUHU216HW,2013-02-16 20:38:00,
2013-02-16 12:43:00,46.6,44.5,29.84,North,0,0.0,0.0,92,0.01,,,0.20,WUHU216HW,2013-02-16 20:43:00,
2013-02-16 12:48:00,46.6,44.2,29.83,North,0,0.0,0.0,91,0.00,,,0.20,WUHU216HW,2013-02-16 20:48:00,
2013-02-16 12:53:00,46.4,44.3,29.83,North,0,0.0,0.0,92,0.00,,,0.20,WUHU216HW,2013-02-16 20:53:00,
2013-02-16 12:58:00,46.4,44.0,29.83,North,0,0.0,0.0,91,0.00,,,0.20,WUHU216HW,2013-02-16 20:58:00,
2013-02-16 13:03:00,46.3,43.3,29.83,North,0,0.0,0.0,89,0.00,,,0.20,WUHU216HW,2013-02-16 21:03:00,
2013-02-16 13:08:00,46.3,43.6,29.83,North,0,0.0,0.0,90,0.00,,,0.20,WUHU216HW,2013-02-16 21:08:00,
2013-02-16 13:13:00,46.3,43.8,29.83,North,0,0.0,0.0,91,0.00,,,0.20,WUHU216HW,2013-02-16 21:13:00,
2013-02-16 13:18:00,46.4,44.0,29.83,North,0,0.0,0.0,91,0.00,,,0.20,WUHU216HW,2013-02-16 21:18:00,
2013-02-16 13:23:00,46.4,44.0,29.83,North,0,0.0,0.0,91,0.00,,,0.20,WUHU216HW,2013-02-16 21:23:00,
2013-02-16 13:28:00,46.4,44.0,29.83,North,0,0.0,0.0,91,0.00,,,0.20,WUHU216HW,2013-02-16 21:28:00,
2013-02-16 13:33:00,46.4,43.7,29.83,North,0,0.0,0.0,90,0.00,,,0.20,WUHU216HW,2013-02-16 21:33:00,
2013-02-16 13:38:00,46.1,43.1,29.83,North,0,0.0,0.0,89,0.00,,,0.20,WUHU216HW,2013-02-16 21:38:00,
2013-02-16 13:43:00,46.1,43.4,29.83,North,0,0.0,0.0,90,0.00,,,0.20,WUHU216HW,2013-02-16 21:43:00,
2013-02-16 13:48:00,45.9,43.2,29.83,North,0,0.0,0.0,90,0.00,,,0.20,WUHU216HW,2013-02-16 21:48:00,
2013-02-16 13:53:00,45.9,43.2,29.83,North,0,0.0,0.0,90,0.00,,,0.20,WUHU216HW,2013-02-16 21:53:00,
2013-02-16 13:58:00,45.9,43.2,29.83,North,0,0.0,0.0,90,0.02,,,0.22,WUHU216HW,2013-02-16 21:58:00,
2013-02-16 14:03:00,45.9,43.2,29.83,North,0,0.0,0.0,90,0.02,,,0.22,WUHU216HW,2013-02-16 22:03:00,
2013-02-16 14:08:00,46.1,43.4,29.83,North,0,0.0,0.0,90,0.02,,,0.22,WUHU216HW,2013-02-16 22:08:00,
2013-02-16 14:13:00,46.3,43.6,29.83,North,0,0.0,0.0,90,0.02,,,0.22,WUHU216HW,2013-02-16 22:13:00,
2013-02-16 14:18:00,46.4,43.7,29.83,North,0,0.0,0.0,90,0.02,,,0.22,WUHU216HW,2013-02-16 22:18:00,
2013-02-16 14:23:00,46.4,43.1,29.83,North,0,0.0,0.0,88,0.02,,,0.22,WUHU216HW,2013-02-16 22:23:00,
2013-02-16 14:28:00,46.6,43.3,29.83,North,0,0.0,0.0,88,0.02,,,0.22,WUHU216HW,2013-02-16 22:28:00,
2013-02-16 14:33:00,46.8,43.5,29.83,North,0,0.0,0.0,88,0.02,,,0.22,WUHU216HW,2013-02-16 22:33:00,
2013-02-16 14:38:00,46.8,43.5,29.83,North,0,0.0,0.0,88,0.02,,,0.22,WUHU216HW,2013-02-16 22:38:00,
2013-02-16 14:42:00,46.8,43.5,29.82,North,0,0.0,0.0,88,0.02,,,0.22,WUHU216HW,2013-02-16 22:42:00,
2013-02-16 14:47:00,47.0,43.7,29.82,North,0,0.0,0.0,88,0.02,,,0.22,WUHU216HW,2013-02-16 22:47:00,
2013-02-16 14:52:00,47.0,43.7,29.82,North,0,0.0,0.0,88,0.02,,,0.22,WUHU216HW,2013-02-16 22:52:00,
2013-02-16 14:58:00,47.2,43.8,29.82,North,0,0.0,0.0,88,0.00,,,0.22,WUHU216HW,2013-02-16 22:58:00,
2013-02-16 15:03:00,47.2,43.8,29.82,North,0,0.0,0.0,88,0.00,,,0.22,WUHU216HW,2013-02-16 23:03:00,
2013-02-16 15:08:00,47.3,44.0,29.83,North,0,0.0,0.0,88,0.00,,,0.22,WUHU216HW,2013-02-16 23:08:00,
2013-02-16 15:13:00,47.5,43.6,29.82,North,0,0.0,0.0,86,0.00,,,0.22,WUHU216HW,2013-02-16 23:13:00,
2013-02-16 15:18:00,47.5,43.6,29.82,North,0,0.0,0.0,86,0.00,,,0.22,WUHU216HW,2013-02-16 23:18:00,
2013-02-16 15:23:00,47.5,42.9,29.83,North,0,0.0,0.0,84,0.00,,,0.22,WUHU216HW,2013-02-16 23:23:00,
2013-02-16 15:28:00,47.5,42.9,29.83,North,0,0.0,0.0,84,0.00,,,0.22,WUHU216HW,2013-02-16 23:28:00,
2013-02-16 15:33:00,47.3,42.5,29.83,North,0,0.0,0.0,83,0.00,,,0.22,WUHU216HW,2013-02-16 23:33:00,
2013-02-16 15:38:00,47.2,41.7,29.83,North,0,0.0,0.0,81,0.00,,,0.22,WUHU216HW,2013-02-16 23:38:00,
2013-02-16 15:43:00,47.2,41.7,29.83,North,0,0.0,0.0,81,0.00,,,0.22,WUHU216HW,2013-02-16 23:43:00,
2013-02-16 15:48:00,46.8,41.3,29.83,North,0,0.0,0.0,81,0.00,,,0.22,WUHU216HW,2013-02-16 23:48:00,
2013-02-16 15:53:00,46.8,41.3,29.84,North,0,0.0,0.0,81,0.00,,,0.22,WUHU216HW,2013-02-16 23:53:00,
2013-02-16 15:58:00,46.6,41.5,29.84,North,0,0.0,0.0,82,0.00,,,0.22,WUHU216HW,2013-02-16 23:58:00,
2013-02-16 16:03:00,46.4,41.3,29.84,North,0,0.0,0.0,82,0.00,,,0.22,WUHU216HW,2013-02-17 00:03:00,
2013-02-16 16:08:00,46.4,41.3,29.83,North,0,0.0,0.0,82,0.00,,,0.22,WUHU216HW,2013-02-17 00:08:00,
2013-02-16 16:13:00,46.3,41.1,29.84,North,0,0.0,0.0,82,0.00,,,0.22,WUHU216HW,2013-02-17 00:13:00,
2013-02-16 16:18:00,46.1,41.0,29.84,North,0,0.0,0.0,82,0.00,,,0.22,WUHU216HW,2013-02-17 00:18:00,
2013-02-16 16:23:00,45.9,40.8,29.84,North,0,0.0,0.0,82,0.00,,,0.22,WUHU216HW,2013-02-17 00:23:00,
2013-02-16 16:28:00,45.7,40.9,29.84,North,0,0.0,0.0,83,0.00,,,0.22,WUHU216HW,2013-02-17 00:28:00,
2013-02-16 16:33:00,45.5,40.7,29.83,North,0,0.0,0.0,83,0.00,,,0.22,WUHU216HW,2013-02-17 00:33:00,
2013-02-16 16:38:00,45.4,40.9,29.83,North,0,0.0,0.0,84,0.00,,,0.22,WUHU216HW,2013-02-17 00:38:00,
2013-02-16 16:43:00,45.2,40.7,29.83,North,0,0.0,0.0,84,0.00,,,0.22,WUHU216HW,2013-02-17 00:43:00,
2013-02-16 16:48:00,45.2,40.7,29.83,North,0,0.0,0.0,84,0.00,,,0.22,WUHU216HW,2013-02-17 00:48:00,
2013-02-16 16:53:00,45.2,40.7,29.83,North,0,0.0,0.0,84,0.00,,,0.22,WUHU216HW,2013-02-17 00:53:00,
2013-02-16 16:58:00,45.0,40.5,29.83,North,0,0.0,0.0,84,0.00,,,0.22,WUHU216HW,2013-02-17 00:58:00,
2013-02-16 17:03:00,45.0,40.5,29.83,North,0,0.0,0.0,84,0.00,,,0.22,WUHU216HW,2013-02-17 01:03:00,
2013-02-16 17:08:00,45.0,40.5,29.82,North,0,0.0,0.0,84,0.00,,,0.22,WUHU216HW,2013-02-17 01:08:00,
2013-02-16 17:13:00,45.0,40.1,29.82,North,0,0.0,0.0,83,0.00,,,0.22,WUHU216HW,2013-02-17 01:13:00,
2013-02-16 17:18:00,45.0,40.1,29.82,North,0,0.0,0.0,83,0.00,,,0.22,WUHU216HW,2013-02-17 01:18:00,
2013-02-16 17:23:00,45.0,40.1,29.82,North,0,0.0,0.0,83,0.00,,,0.22,WUHU216HW,2013-02-17 01:23:00,
2013-02-16 17:28:00,44.8,40.0,29.83,North,0,0.0,0.0,83,0.00,,,0.22,WUHU216HW,2013-02-17 01:28:00,
2013-02-16 17:33:00,44.8,39.7,29.83,North,0,0.0,0.0,82,0.00,,,0.22,WUHU216HW,2013-02-17 01:33:00,
2013-02-16 17:38:00,44.8,39.3,29.83,North,0,0.0,0.0,81,0.00,,,0.22,WUHU216HW,2013-02-17 01:38:00,
2013-02-16 17:43:00,44.8,40.0,29.83,North,0,0.0,0.0,83,0.00,,,0.22,WUHU216HW,2013-02-17 01:43:00,
2013-02-16 17:48:00,44.8,39.7,29.83,North,0,0.0,0.0,82,0.00,,,0.22,WUHU216HW,2013-02-17 01:48:00,
2013-02-16 17:53:00,44.8,40.0,29.83,North,0,0.0,0.0,83,0.00,,,0.22,WUHU216HW,2013-02-17 01:53:00,
2013-02-16 17:58:00,44.8,40.0,29.83,North,0,0.0,0.0,83,0.00,,,0.22,WUHU216HW,2013-02-17 01:58:00,
2013-02-16 18:03:00,44.6,39.5,29.83,North,0,0.0,0.0,82,0.00,,,0.22,WUHU216HW,2013-02-17 02:03:00,
2013-02-16 18:08:00,44.6,39.5,29.83,North,0,0.0,0.0,82,0.00,,,0.22,WUHU216HW,2013-02-17 02:08:00,
2013-02-16 18:13:00,44.6,39.2,29.83,North,0,0.0,0.0,81,0.00,,,0.22,WUHU216HW,2013-02-17 02:13:00,
2013-02-16 18:18:00,44.6,39.5,29.83,North,0,0.0,0.0,82,0.00,,,0.22,WUHU216HW,2013-02-17 02:18:00,
2013-02-16 18:23:00,44.6,39.5,29.83,North,0,0.0,0.0,82,0.00,,,0.22,WUHU216HW,2013-02-17 02:23:00,
2013-02-16 18:28:00,44.6,39.2,29.83,North,0,0.0,0.0,81,0.00,,,0.22,WUHU216HW,2013-02-17 02:28:00,
2013-02-16 18:33:00,44.6,39.2,29.83,North,0,0.0,0.0,81,0.00,,,0.22,WUHU216HW,2013-02-17 02:33:00,
2013-02-16 18:38:00,44.6,38.9,29.83,North,0,0.0,0.0,80,0.00,,,0.22,WUHU216HW,2013-02-17 02:38:00,
2013-02-16 18:43:00,44.6,38.9,29.83,North,0,0.0,0.0,80,0.00,,,0.22,WUHU216HW,2013-02-17 02:43:00,
2013-02-16 18:48:00,44.6,38.9,29.83,North,0,0.0,0.0,80,0.00,,,0.22,WUHU216HW,2013-02-17 02:48:00,
2013-02-16 18:53:00,44.6,38.9,29.83,North,0,0.0,0.0,80,0.00,,,0.22,WUHU216HW,2013-02-17 02:53:00,
2013-02-16 18:58:00,44.6,38.9,29.84,North,0,0.0,0.0,80,0.00,,,0.22,WUHU216HW,2013-02-17 02:58:00,
2013-02-16 19:03:00,44.6,38.5,29.83,North,0,0.0,0.0,79,0.00,,,0.22,WUHU216HW,2013-02-17 03:03:00,
2013-02-16 19:08:00,44.6,38.5,29.84,North,0,0.0,0.0,79,0.00,,,0.22,WUHU216HW,2013-02-17 03:08:00,
2013-02-16 19:13:00,44.6,38.5,29.84,North,0,0.0,0.0,79,0.00,,,0.22,WUHU216HW,2013-02-17 03:13:00,
2013-02-16 19:18:00,44.6,38.5,29.84,North,0,0.0,0.0,79,0.00,,,0.22,WUHU216HW,2013-02-17 03:18:00,
2013-02-16 19:23:00,44.6,38.2,29.84,North,0,0.0,0.0,78,0.00,,,0.22,WUHU216HW,2013-02-17 03:23:00,
2013-02-16 19:28:00,44.6,38.2,29.84,North,0,0.0,0.0,78,0.00,,,0.22,WUHU216HW,2013-02-17 03:28:00,
2013-02-16 19:33:00,44.6,38.5,29.84,North,0,0.0,0.0,79,0.00,,,0.22,WUHU216HW,2013-02-17 03:33:00,
2013-02-16 19:38:00,44.6,38.2,29.84,North,0,0.0,0.0,78,0.00,,,0.22,WUHU216HW,2013-02-17 03:38:00,
2013-02-16 19:43:00,44.6,38.2,29.84,North,0,0.0,0.0,78,0.00,,,0.22,WUHU216HW,2013-02-17 03:43:00,
2013-02-16 19:48:00,44.6,38.5,29.84,North,0,0.0,0.0,79,0.00,,,0.22,WUHU216HW,2013-02-17 03:48:00,
2013-02-16 19:53:00,44.6,38.2,29.84,North,0,0.0,0.0,78,0.00,,,0.22,WUHU216HW,2013-02-17 03:53:00,
2013-02-16 19:58:00,44.6,38.2,29.84,North,0,0.0,0.0,78,0.00,,,0.22,WUHU216HW,2013-02-17 03:58:00,
2013-02-16 20:03:00,44.6,38.2,29.84,North,0,0.0,0.0,78,0.00,,,0.22,WUHU216HW,2013-02-17 04:03:00,
2013-02-16 20:08:00,44.6,38.2,29.84,North,0,0.0,0.0,78,0.00,,,0.22,WUHU216HW,2013-02-17 04:08:00,
2013-02-16 20:13:00,44.6,37.9,29.84,North,0,0.0,0.0,77,0.00,,,0.22,WUHU216HW,2013-02-17 04:13:00,
2013-02-16 20:18:00,44.8,38.1,29.84,North,0,0.0,0.0,77,0.00,,,0.22,WUHU216HW,2013-02-17 04:18:00,
2013-02-16 20:23:00,44.8,38.1,29.84,North,0,0.0,0.0,77,0.00,,,0.22,WUHU216HW,2013-02-17 04:23:00,
2013-02-16 20:28:00,44.8,38.1,29.84,North,0,0.0,0.0,77,0.00,,,0.22,WUHU216HW,2013-02-17 04:28:00,
2013-02-16 20:33:00,44.8,38.1,29.84,North,0,0.0,0.0,77,0.00,,,0.22,WUHU216HW,2013-02-17 04:33:00,
2013-02-16 20:38:00,44.6,37.9,29.84,North,0,0.0,0.0,77,0.00,,,0.22,WUHU216HW,2013-02-17 04:38:00,
2013-02-16 20:43:00,44.6,37.9,29.85,North,0,0.0,0.0,77,0.00,,,0.22,WUHU216HW,2013-02-17 04:43:00,
2013-02-16 20:48:00,44.6,38.2,29.85,North,0,0.0,0.0,78,0.00,,,0.22,WUHU216HW,2013-02-17 04:48:00,
2013-02-16 20:53:00,44.6,38.2,29.85,North,0,0.0,0.0,78,0.00,,,0.22,WUHU216HW,2013-02-17 04:53:00,
2013-02-16 20:57:00,44.6,38.2,29.85,North,0,0.0,0.0,78,0.00,,,0.22,WUHU216HW,2013-02-17 04:57:00,
2013-02-16 21:00:00,44.6,38.2,29.85,North,0,0.0,0.0,78,0.00,,,0.22,WUHU216HW,2013-02-17 05:00:00,
2013-02-16 21:05:00,44.6,38.5,29.85,North,0,0.0,0.0,79,0.00,,,0.22,WUHU216HW,2013-02-17 05:05:00,
2013-02-16 21:10:00,44.6,38.2,29.85,North,0,0.0,0.0,78,0.00,,,0.22,WUHU216HW,2013-02-17 05:10:00,
2013-02-16 21:15:00,44.6,38.2,29.85,North,0,0.0,0.0,78,0.00,,,0.22,WUHU216HW,2013-02-17 05:15:00,
2013-02-16 21:20:00,44.6,38.2,29.85,North,0,0.0,0.0,78,0.00,,,0.22,WUHU216HW,2013-02-17 05:20:00,
2013-02-16 21:25:00,44.6,38.2,29.85,North,0,0.0,0.0,78,0.00,,,0.22,WUHU216HW,2013-02-17 05:25:00,
2013-02-16 21:30:00,44.6,38.2,29.86,North,0,0.0,0.0,78,0.00,,,0.22,WUHU216HW,2013-02-17 05:30:00,
2013-02-16 21:35:00,44.6,38.5,29.86,North,0,0.0,0.0,79,0.00,,,0.22,WUHU216HW,2013-02-17 05:35:00,
2013-02-16 21:40:00,44.6,38.5,29.86,North,0,0.0,0.0,79,0.00,,,0.22,WUHU216HW,2013-02-17 05:40:00,
2013-02-16 21:45:00,44.5,38.3,29.86,North,0,0.0,0.0,79,0.00,,,0.22,WUHU216HW,2013-02-17 05:45:00,
2013-02-16 21:50:00,44.3,38.8,29.86,North,0,0.0,0.0,81,0.00,,,0.22,WUHU216HW,2013-02-17 05:50:00,
2013-02-16 21:55:00,44.3,38.8,29.86,North,0,0.0,0.0,81,0.00,,,0.22,WUHU216HW,2013-02-17 05:55:00,
2013-02-16 22:00:00,44.1,38.6,29.86,North,0,0.0,0.0,81,0.00,,,0.22,WUHU216HW,2013-02-17 06:00:00,
2013-02-16 22:05:00,44.1,38.6,29.86,North,0,0.0,0.0,81,0.00,,,0.22,WUHU216HW,2013-02-17 06:05:00,
2013-02-16 22:10:00,43.9,38.8,29.86,North,0,0.0,0.0,82,0.00,,,0.22,WUHU216HW,2013-02-17 06:10:00,
2013-02-16 22:15:00,43.9,38.8,29.86,North,0,0.0,0.0,82,0.00,,,0.22,WUHU216HW,2013-02-17 06:15:00,
2013-02-16 22:20:00,43.9,39.1,29.87,North,0,0.0,0.0,83,0.00,,,0.22,WUHU216HW,2013-02-17 06:20:00,
2013-02-16 22:25:00,43.7,38.9,29.87,North,0,0.0,0.0,83,0.00,,,0.22,WUHU216HW,2013-02-17 06:25:00,
2013-02-16 22:30:00,43.7,39.3,29.87,North,0,0.0,0.0,84,0.00,,,0.22,WUHU216HW,2013-02-17 06:30:00,
2013-02-16 22:35:00,43.7,39.3,29.87,North,0,0.0,0.0,84,0.02,,,0.24,WUHU216HW,2013-02-17 06:35:00,
2013-02-16 22:40:00,43.6,39.1,29.87,North,0,0.0,0.0,84,0.02,,,0.24,WUHU216HW,2013-02-17 06:40:00,
2013-02-16 22:45:00,43.4,39.2,29.87,North,0,0.0,0.0,85,0.02,,,0.24,WUHU216HW,2013-02-17 06:45:00,
2013-02-16 22:50:00,43.2,39.2,29.88,North,0,0.0,0.0,86,0.02,,,0.24,WUHU216HW,2013-02-17 06:50:00,
2013-02-16 22:55:00,43.2,39.0,29.88,North,0,0.0,0.0,85,0.02,,,0.24,WUHU216HW,2013-02-17 06:55:00,
2013-02-16 23:00:00,43.0,39.1,29.88,North,0,0.0,0.0,86,0.02,,,0.24,WUHU216HW,2013-02-17 07:00:00,
2013-02-16 23:05:00,43.0,39.1,29.88,North,0,0.0,0.0,86,0.02,,,0.24,WUHU216HW,2013-02-17 07:05:00,
2013-02-16 23:10:00,42.8,38.9,29.88,North,0,0.0,0.0,86,0.02,,,0.24,WUHU216HW,2013-02-17 07:10:00,
2013-02-16 23:15:00,42.8,38.9,29.88,North,0,0.0,0.0,86,0.02,,,0.24,WUHU216HW,2013-02-17 07:15:00,
2013-02-16 23:20:00,42.8,38.9,29.88,North,0,0.0,0.0,86,0.04,,,0.26,WUHU216HW,2013-02-17 07:20:00,
2013-02-16 23:25:00,42.8,38.9,29.88,North,0,0.0,0.0,86,0.04,,,0.26,WUHU216HW,2013-02-17 07:25:00,
2013-02-16 23:30:00,42.8,38.9,29.88,North,0,0.0,0.0,86,0.04,,,0.26,WUHU216HW,2013-02-17 07:30:00,
2013-02-16 23:35:00,42.7,39.1,29.89,North,0,0.0,0.0,87,0.02,,,0.26,WUHU216HW,2013-02-17 07:35:00,
2013-02-16 23:40:00,42.7,39.1,29.89,North,0,0.0,0.0,87,0.02,,,0.26,WUHU216HW,2013-02-17 07:40:00,
2013-02-16 23:45:00,42.5,38.9,29.89,North,0,0.0,0.0,87,0.02,,,0.26,WUHU216HW,2013-02-17 07:45:00,
2013-02-16 23:50:00,42.5,38.9,29.89,North,0,0.0,0.0,87,0.03,,,0.27,WUHU216HW,2013-02-17 07:50:00,
2013-02-16 23:55:00,42.3,39.0,29.89,North,0,0.0,0.0,88,0.04,,,0.28,WUHU216HW,2013-02-17 07:55:00,